Temp
29 30 30 32 33 34 35 35 35 36 36 34 34 34 34 33 32 32 31 30 29 28 27 26 25 25 24 23 22 21 20 20 20 19 19 19 20 21 21 21 20 19 19 17
31 30 33 33 34 34 35 35 35 36 35 35 34 34 35 34 33 32 32 30 30 29 28 27 26 25 24 23 22 21 20 20 19 19 19 20 21 22 21 20 20 19 19 18
31 32 33 33 34 34 34 35 35 36 35 35 35 34 35 35 33 32 32 31 30 30 29 28 26 25 25 24 23 21 20 20 19 20 20 20 20 21 21 21 20 19 18 18
32 34 33 33 33 34 33 35 36 36 33 32 35 33 34 35 35 34 32 32 31 30 30 29 27 26 25 24 23 22 21 20 20 19 20 20 20 21 22 22 22 21 19 19
31 32 33 32 33 34 34 36 35 36 35 33 34 34 35 36 35 35 35 33 32 31 30 29 28 27 26 25 24 22 21 20 20 20 20 20 20 22 22 22 21 19 19 18
32 33 33 34 34 34 35 35 35 35 35 33 34 34 34 33 36 36 36 34 33 32 31 30 29 28 26 26 24 23 21 20 20 20 20 20 21 21 22 21 20 20 19 18
31 32 33 34 33 34 33 33 32 32 33 32 35 34 33 37 37 36 37 36 34 32 31 30 29 28 27 25 25 23 22 21 20 20 20 20 20 20 20 20 20 21 21 20
30 30 32 33 32 32 33 34 32 30 32 33 35 34 35 37 37 37 36 36 36 33 32 31 30 28 27 26 25 24 22 21 21 20 20 20 20 20 20 20 21 20 21 21
31 30 33 33 33 33 33 33 35 34 34 34 35 35 37 37 37 37 36 36 36 34 33 31 30 29 27 26 25 24 23 21 21 20 20 20 20 20 21 21 21 20 20 21
31 30 33 33 33 33 33 35 33 35 31 31 34 34 34 35 35 36 36 36 36 35 33 32 31 29 28 26 25 24 23 22 21 21 21 20 20 20 21 20 20 20 20 20
32 31 31 33 32 31 32 33 34 34 34 32 32 34 37 36 35 35 36 36 36 35 34 33 32 30 28 27 26 25 24 23 22 21 21 21 21 20 21 22 21 20 20 19
32 31 30 31 33 33 33 32 33 34 31 33 34 34 38 37 36 36 36 36 36 36 34 33 32 31 30 28 27 26 25 24 23 22 22 22 21 21 20 22 20 20 22 19
32 30 29 30 32 33 32 32 33 34 34 33 33 33 37 37 37 36 36 35 36 35 35 34 33 32 30 29 28 27 26 26 25 23 22 22 22 22 22 21 21 20 21 21
29 31 29 30 30 32 31 31 32 33 33 32 33 33 35 36 36 36 35 35 35 35 33 33 33 32 31 30 28 27 27 27 26 25 24 23 22 22 21 21 20 20 21 22
29 28 30 31 31 32 32 32 32 32 32 32 33 33 34 35 36 36 35 35 35 35 34 32 32 32 31 30 28 27 27 27 27 26 25 24 23 21 21 21 20 20 19 20
29 27 29 29 31 31 31 32 32 32 32 32 33 33 36 36 36 35 35 35 34 34 35 32 31 30 30 29 28 27 27 27 27 26 25 25 23 22 21 21 20 19 19 18
28 28 27 27 29 30 29 31 32 32 33 32 31 32 34 34 35 35 35 35 34 34 34 34 31 29 29 28 27 27 26 26 26 26 25 25 24 23 22 20 20 19 19 17
27 27 28 27 28 26 30 33 32 32 32 33 33 33 33 34 34 34 34 34 34 34 34 34 32 30 29 28 27 26 26 25 25 25 24 24 23 22 21 20 20 19 18 17
28 27 26 26 27 28 29 29 29 28 29 33 33 33 34 33 33 33 33 34 34 34 34 34 32 30 28 28 27 26 25 24 24 23 23 23 22 21 20 19 18 18 18 17
26 26 26 27 26 26 29 27 27 29 28 31 31 31 33 34 33 34 33 33 33 33 33 33 31 30 28 27 27 25 25 23 23 23 22 21 21 21 20 19 18 18 17 17
25 25 25 26 26 28 26 27 27 26 27 27 27 27 29 32 34 33 32 33 33 31 31 31 29 29 26 26 26 25 24 23 23 23 22 21 20 20 19 18 18 17 16 16
24 25 26 26 25 25 25 26 26 24 24 26 27 27 28 30 32 30 28 28 29 29 29 28 27 26 25 25 25 24 24 23 23 22 21 20 20 19 18 18 18 17 16 16
26 27 27 26 25 22 22 23 22 22 24 25 26 27 29 30 28 27 26 26 26 26 26 26 25 24 24 23 23 23 23 22 22 21 21 20 19 18 18 18 17 16 16 16
19 27 28 24 22 22 21 21 21 22 22 23 24 26 26 26 26 25 25 25 25 24 24 24 23 23 22 22 22 21 22 20 20 20 20 19 18 17 17 17 16 16 16 15
12 15 24 22 21 20 20 20 20 20 21 20 19 19 21 23 23 22 22 23 23 23 23 22 21 20 20 19 19 19 19 19 18 19 19 17 17 16 16 16 15 15 15 15
11 12 16 18 21 20 18 18 19 19 19 19 18 18 18 18 18 19 19 20 20 20 20 20 20 19 19 18 18 18 18 17 17 17 16 16 16 16 15 15 14 14 14 14
Height
1461 1462 1459 1456 1452 1450 1442 1441 1446 1437 1441 1457 1461 1462 1465 1473 1479 1482 1488 1495 1500 1505 1511 1516 1521 1526 1530 1534 1537 1540 1544 1547 1550 1552 1554 1558 1559 1561 1562 1563 1563 1563 1564 1565
1454 1453 1446 1449 1449 1448 1443 1440 1439 1434 1438 1449 1453 1456 1454 1466 1473 1476 1481 1487 1494 1500 1504 1511 1516 1520 1524 1529 1532 1536 1539 1542 1545 1549 1551 1555 1556 1558 1558 1560 1560 1561 1563 1563
1440 1439 1443 1443 1443 1446 1443 1440 1435 1437 1436 1447 1447 1458 1451 1453 1463 1471 1474 1478 1485 1491 1496 1503 1510 1514 1519 1522 1526 1530 1533 1537 1541 1545 1549 1550 1552 1554 1555 1557 1558 1557 1559 1561
1435 1430 1435 1440 1441 1439 1446 1435 1431 1431 1450 1465 1444 1467 1446 1446 1450 1459 1467 1471 1475 1482 1489 1495 1502 1508 1512 1516 1521 1526 1528 1533 1536 1540 1545 1547 1550 1552 1553 1554 1555 1557 1557 1559
1430 1429 1429 1435 1432 1433 1438 1429 1433 1430 1434 1453 1440 1455 1437 1434 1440 1445 1453 1461 1467 1473 1480 1486 1493 1500 1506 1511 1516 1520 1523 1527 1532 1535 1539 1543 1546 1548 1550 1552 1552 1554 1554 1556
1421 1421 1424 1422 1427 1428 1432 1432 1430 1430 1432 1453 1437 1444 1441 1446 1430 1432 1438 1448 1458 1465 1471 1478 1486 1493 1499 1505 1509 1514 1517 1521 1525 1530 1533 1537 1542 1544 1547 1549 1550 1551 1553 1552
1421 1417 1417 1420 1428 1427 1432 1437 1454 1455 1450 1453 1423 1433 1444 1414 1418 1427 1431 1435 1444 1455 1463 1469 1476 1483 1490 1496 1502 1507 1510 1513 1518 1523 1528 1532 1536 1540 1542 1545 1547 1549 1551 1552
1423 1428 1412 1412 1416 1426 1425 1424 1438 1464 1450 1440 1419 1433 1420 1407 1414 1420 1425 1428 1433 1444 1453 1460 1466 1473 1480 1488 1495 1500 1504 1507 1512 1517 1522 1527 1531 1536 1538 1540 1544 1545 1547 1549
1407 1413 1400 1405 1412 1417 1416 1421 1411 1425 1416 1429 1417 1412 1404 1404 1409 1417 1423 1425 1427 1434 1444 1450 1458 1465 1472 1479 1484 1491 1497 1501 1506 1511 1516 1520 1525 1529 1533 1536 1538 1541 1543 1546
1393 1407 1392 1396 1407 1408 1407 1404 1423 1409 1437 1440 1419 1414 1416 1408 1415 1415 1417 1421 1423 1428 1437 1443 1451 1459 1466 1472 1479 1485 1491 1495 1500 1506 1510 1514 1518 1522 1527 1531 1532 1535 1540 1542
1390 1393 1396 1391 1394 1402 1409 1403 1399 1405 1408 1425 1430 1409 1384 1395 1403 1410 1413 1414 1417 1422 1430 1437 1443 1451 1458 1466 1472 1477 1483 1488 1493 1499 1504 1508 1512 1516 1520 1523 1526 1529 1533 1533
1381 1389 1400 1389 1383 1387 1393 1398 1397 1403 1420 1406 1404 1400 1373 1384 1395 1404 1405 1406 1409 1414 1421 1430 1436 1444 1451 1457 1464 1469 1476 1481 1485 1492 1497 1500 1505 1510 1512 1514 1520 1523 1526 1528
1374 1387 1399 1397 1384 1379 1387 1384 1383 1385 1390 1400 1411 1404 1376 1381 1386 1394 1402 1407 1408 1410 1415 1422 1430 1435 1442 1449 1455 1461 1467 1473 1479 1485 1489 1493 1497 1500 1503 1508 1513 1516 1518 1521
1374 1372 1382 1383 1384 1374 1387 1387 1383 1384 1390 1395 1392 1395 1382 1381 1388 1394 1401 1403 1404 1408 1415 1419 1423 1427 1432 1439 1446 1453 1459 1465 1472 1477 1482 1486 1488 1491 1496 1502 1505 1507 1509 1512
1374 1380 1370 1369 1365 1366 1369 1376 1380 1382 1381 1389 1384 1386 1380 1378 1382 1388 1395 1399 1401 1403 1408 1415 1418 1420 1424 1430 1438 1445 1452 1457 1464 1469 1474 1477 1481 1486 1491 1494 1497 1500 1501 1503
1367 1378 1372 1372 1364 1367 1369 1363 1367 1373 1378 1376 1379 1377 1370 1375 1377 1382 1386 1393 1397 1399 1400 1407 1413 1416 1419 1423 1430 1437 1444 1450 1457 1461 1466 1471 1475 1478 1482 1487 1490 1492 1494 1496
1364 1367 1378 1382 1367 1367 1378 1362 1360 1359 1360 1370 1383 1373 1374 1371 1371 1374 1380 1385 1392 1396 1396 1398 1405 1409 1411 1417 1423 1430 1436 1444 1449 1454 1460 1464 1467 1470 1473 1479 1482 1483 1485 1488
1359 1366 1368 1374 1371 1392 1356 1347 1351 1356 1355 1354 1357 1362 1366 1367 1370 1372 1375 1378 1384 1388 1390 1391 1397 1403 1407 1413 1419 1425 1431 1435 1442 1446 1451 1456 1460 1464 1467 1469 1472 1474 1478 1481
1349 1361 1371 1374 1371 1359 1357 1357 1360 1364 1360 1346 1350 1350 1353 1361 1365 1366 1369 1370 1375 1378 1381 1383 1389 1396 1403 1407 1412 1417 1424 1429 1435 1439 1443 1449 1454 1458 1463 1464 1467 1468 1471 1474
1353 1356 1360 1362 1371 1369 1348 1357 1372 1360 1367 1350 1352 1351 1348 1351 1359 1351 1358 1363 1367 1372 1375 1378 1384 1390 1397 1402 1408 1412 1418 1424 1429 1434 1440 1445 1449 1453 1456 1459 1461 1464 1466 1469
1354 1355 1361 1361 1359 1346 1349 1353 1359 1380 1367 1361 1361 1360 1355 1346 1343 1350 1351 1353 1359 1368 1374 1376 1380 1387 1391 1397 1404 1408 1413 1418 1424 1431 1436 1441 1445 1448 1452 1454 1456 1460 1463 1464
1345 1349 1347 1350 1360 1363 1352 1353 1361 1364 1364 1362 1358 1356 1352 1346 1343 1350 1356 1357 1361 1367 1370 1372 1377 1385 1388 1395 1401 1408 1412 1416 1421 1427 1433 1438 1441 1446 1447 1448 1451 1455 1458 1462
1331 1325 1335 1336 1343 1352 1353 1358 1360 1362 1365 1365 1358 1352 1348 1342 1345 1353 1355 1360 1365 1371 1372 1372 1377 1386 1386 1393 1401 1406 1411 1416 1420 1424 1427 1434 1437 1438 1441 1443 1447 1451 1454 1457
1328 1320 1319 1337 1355 1355 1361 1363 1366 1367 1371 1369 1361 1353 1354 1354 1355 1358 1362 1369 1372 1374 1377 1378 1381 1390 1388 1395 1403 1406 1410 1415 1419 1424 1425 1427 1432 1434 1438 1441 1444 1447 1452 1455
1353 1359 1326 1338 1355 1361 1363 1364 1370 1374 1375 1374 1368 1365 1366 1364 1365 1369 1374 1379 1380 1381 1382 1382 1387 1393 1390 1395 1401 1405 1411 1415 1417 1419 1423 1426 1430 1434 1436 1438 1442 1445 1449 1453
1358 1362 1353 1350 1350 1352 1368 1375 1379 1381 1381 1379 1380 1377 1383 1380 1378 1380 1385 1386 1388 1390 1388 1386 1388 1392 1394 1396 1400 1405 1410 1414 1416 1419 1423 1426 1429 1432 1437 1440 1444 1448 1450 1453
Wind_Speed
24 18 24 27 25 24 23 20 15 14 25 19 18 14 13 16 18 19 23 22 25 26 26 26 26 26 25 24 24 23 24 24 22 21 19 16 15 15 14 14 13 15 14 11
17 24 25 25 26 24 27 23 18 14 21 21 18 19 18 18 16 19 22 25 26 27 27 28 28 28 27 27 26 25 25 26 24 20 18 19 16 13 14 13 16 14 12 11
24 22 25 25 26 27 26 25 19 17 25 19 15 18 18 16 22 20 22 24 27 30 30 30 30 30 29 30 30 28 28 27 26 23 17 20 15 16 10 14 12 12 11 12
24 21 25 27 28 27 25 25 24 20 13 12 19 16 21 19 20 20 24 25 28 30 31 31 32 32 32 31 29 29 29 30 26 25 21 21 17 15 13 12 11 10 10 11
25 24 25 29 30 29 25 24 24 23 18 24 24 17 13 22 20 22 20 27 28 29 32 33 34 33 32 31 30 29 31 30 28 26 24 21 18 15 13 12 11 15 13 12
25 25 27 23 26 24 24 24 25 24 19 17 23 18 20 16 15 14 21 27 29 29 30 33 33 32 34 32 31 31 32 33 31 29 26 27 21 21 15 15 12 10 11 10
23 28 23 26 24 24 28 25 16 20 18 19 22 21 22 19 16 20 16 23 29 30 31 32 35 36 35 36 35 33 34 35 33 30 27 28 26 22 19 15 16 12 12 12
21 21 29 20 28 28 31 29 20 26 18 19 23 22 22 17 12 8 12 13 19 28 32 35 37 38 37 36 37 37 36 36 36 32 31 29 28 24 22 21 17 16 15 14
20 25 19 29 26 26 30 29 28 27 24 19 20 25 23 12 19 17 21 21 15 25 32 37 36 37 38 38 41 40 37 37 37 33 33 32 29 29 26 23 22 19 19 16
21 17 23 25 25 26 33 24 27 22 28 26 24 23 18 21 19 19 14 20 17 23 31 35 36 36 37 37 38 40 39 37 36 35 34 33 34 32 31 28 28 24 20 21
25 18 15 22 29 30 21 27 24 26 24 21 20 19 20 17 17 20 22 27 19 22 27 32 36 37 38 36 37 39 39 39 36 37 35 35 34 32 33 35 33 32 26 25
26 16 15 20 25 26 27 28 32 18 27 21 22 19 15 16 16 13 13 14 21 22 25 28 34 35 37 39 38 38 38 37 38 37 39 39 38 35 34 36 33 32 31 29
22 20 17 20 19 23 30 31 32 31 22 26 22 20 22 13 17 27 22 24 27 7 13 23 28 36 39 40 41 40 40 38 36 37 37 39 39 41 42 37 35 34 35 33
10 21 24 18 22 18 28 29 30 29 22 22 26 26 24 21 13 11 17 17 14 11 11 18 26 33 40 42 43 43 41 38 36 35 36 38 42 44 40 37 36 36 37 38
17 19 23 26 25 21 23 28 28 31 29 28 24 29 25 23 23 21 26 21 21 20 14 18 25 30 36 40 42 44 41 40 37 38 37 39 39 38 37 36 37 37 40 42
21 18 19 21 24 25 24 23 30 29 30 30 29 31 25 29 34 22 23 25 24 24 19 18 23 28 33 39 40 41 44 39 38 37 40 37 37 38 37 36 36 38 40 38
22 17 19 21 22 19 23 27 25 24 29 28 28 31 27 28 25 25 33 31 30 30 31 18 22 29 35 39 38 39 40 40 36 39 34 37 34 37 37 36 37 40 41 40
21 23 17 17 18 24 20 22 22 28 28 26 28 27 27 26 35 37 36 28 31 33 36 27 22 26 32 32 32 36 33 38 38 37 38 33 36 33 35 35 34 38 39 37
17 18 17 17 20 18 20 10 7 5 15 20 27 26 26 36 35 32 45 46 37 28 31 25 22 26 31 33 33 34 32 33 35 34 35 36 34 34 32 29 29 35 35 33
21 15 14 18 23 26 9 16 6 4 12 16 15 20 21 26 19 18 35 43 36 24 23 22 22 27 32 32 31 32 31 29 30 29 27 27 28 28 27 26 29 30 27 27
21 20 22 18 18 20 10 5 4 14 5 12 14 20 25 20 23 30 18 33 27 26 23 19 23 28 30 31 30 33 31 30 26 24 22 23 23 24 22 23 25 24 23 24
23 21 19 19 23 23 5 11 10 5 12 15 17 18 25 32 30 13 6 6 11 16 21 24 26 26 26 28 29 28 28 27 26 24 21 20 20 18 20 21 24 20 19 17
24 20 17 7 9 10 11 8 6 5 9 11 12 10 13 5 10 9 8 9 13 15 18 22 24 25 27 26 27 27 25 26 25 24 23 19 23 23 21 20 19 16 16 17
7 13 18 12 12 12 12 11 8 5 2 11 14 7 3 11 16 17 18 17 19 20 20 23 25 24 26 23 22 22 25 21 18 19 24 22 19 19 16 15 16 15 15 15
6 14 7 17 16 18 18 18 12 12 11 11 21 28 20 19 22 23 20 18 20 20 22 23 23 21 22 21 18 16 16 17 17 17 17 18 17 15 16 16 14 11 12 13
3 5 4 8 18 21 16 14 14 14 15 17 20 23 18 19 21 20 17 18 17 17 19 21 21 19 19 18 17 15 15 14 16 16 15 14 16 15 14 13 14 14 10 13
Wind_Direction
198 205 210 212 223 227 235 215 232 214 166 198 197 223 156 177 202 197 188 198 197 203 203 204 203 203 202 203 204 205 205 211 206 213 216 213 222 229 229 241 239 265 265 234
183 216 214 220 219 227 241 246 225 206 159 194 205 204 185 178 204 209 201 201 206 206 206 204 204 204 204 204 205 206 207 208 211 214 209 216 220 230 239 244 233 238 243 254
217 209 216 216 224 222 230 243 240 220 155 205 229 222 204 190 190 213 215 210 208 210 208 201 205 206 206 206 206 208 209 210 210 204 214 215 215 223 220 232 247 257 231 232
224 221 203 220 221 225 226 230 252 234 169 231 207 247 194 209 205 197 213 217 211 209 210 206 206 208 208 209 209 209 212 210 212 213 206 218 213 221 226 229 227 213 213 215
222 224 218 212 221 221 230 227 233 248 211 211 203 224 231 207 199 196 209 209 217 210 209 210 207 210 211 210 209 210 211 212 206 214 204 217 209 216 213 212 216 213 231 201
238 211 226 225 223 223 230 238 239 234 246 236 239 216 232 189 215 197 202 203 210 214 209 210 212 211 212 211 210 209 209 213 209 206 217 203 216 207 209 210 214 212 206 209
224 232 217 235 214 223 222 226 230 231 222 239 229 220 231 215 193 206 225 201 201 207 209 207 208 209 209 210 208 207 207 215 211 208 209 210 204 215 211 209 212 206 208 213
216 217 226 205 227 220 216 220 222 224 227 224 232 233 227 223 220 208 224 246 206 196 208 208 208 207 206 208 206 206 207 212 214 209 209 212 211 210 215 219 209 214 209 214
214 223 213 216 218 227 220 220 227 235 233 237 227 220 245 234 224 223 235 247 213 194 207 208 206 205 205 205 205 205 206 210 214 207 212 214 215 208 215 214 228 216 214 213
233 244 209 213 217 224 237 219 222 229 236 230 228 236 218 206 228 243 228 241 217 205 209 208 205 205 205 206 205 205 206 209 212 206 213 215 217 221 211 217 218 216 219 210
231 240 233 209 204 218 220 236 221 231 236 243 243 234 223 206 205 220 227 227 220 208 207 210 206 206 205 204 204 204 205 206 211 209 211 212 217 217 225 220 225 224 211 225
213 227 222 238 224 213 229 226 234 228 224 241 256 248 205 206 187 226 254 254 214 206 201 213 210 206 204 204 204 204 204 206 210 208 211 217 218 218 223 227 221 227 230 222
196 224 226 223 232 217 216 232 224 236 230 229 237 238 253 216 218 207 215 237 248 168 203 204 212 207 206 205 204 204 204 207 209 209 213 215 221 225 226 227 222 226 235 229
279 223 225 224 224 227 215 221 237 231 234 233 239 243 238 237 210 226 214 229 233 228 212 223 213 211 206 205 204 204 204 205 207 210 211 214 221 225 224 220 225 226 235 233
237 236 235 225 256 231 225 218 228 238 232 238 239 236 239 236 229 218 217 239 246 242 203 219 220 213 208 202 204 204 204 204 205 206 210 214 221 220 220 222 221 227 233 236
215 230 242 242 230 240 253 237 218 223 242 249 248 252 244 241 252 239 220 227 244 263 251 219 225 220 208 203 205 204 203 204 203 207 209 213 214 222 224 220 221 227 236 236
216 214 220 233 239 244 235 239 246 245 226 226 238 251 255 257 254 246 234 240 247 253 256 232 230 222 208 205 204 203 204 204 206 207 210 209 213 220 223 221 227 234 235 235
226 218 226 232 230 234 245 244 245 243 250 256 238 236 240 247 253 257 253 242 237 242 251 247 229 220 208 204 202 200 203 201 204 207 208 206 210 213 219 225 229 232 236 240
230 213 221 234 232 234 263 268 290 310 289 247 245 252 232 239 244 239 244 250 246 242 245 237 222 213 203 197 194 191 193 198 199 202 207 208 209 210 218 222 218 227 233 235
238 230 237 209 238 238 214 106 265 302 266 267 295 299 268 237 232 243 234 239 229 235 240 237 212 201 196 192 191 187 188 191 193 194 197 198 203 206 209 220 215 220 229 236
214 217 215 228 238 232 110 98 42 253 286 334 316 301 284 273 236 243 255 222 228 225 229 201 192 191 189 183 189 185 183 186 183 181 185 192 198 203 206 218 219 220 221 226
205 202 217 211 229 235 79 188 229 7 326 315 309 296 284 280 239 215 190 189 202 212 199 186 179 183 176 176 179 176 173 171 166 172 177 185 192 194 205 211 212 218 226 232
206 210 207 228 206 83 54 59 61 17 326 319 318 313 301 300 132 153 156 157 171 183 175 165 164 166 157 163 166 161 160 164 166 169 174 178 193 200 202 205 207 214 219 223
338 232 214 141 122 104 103 87 80 91 43 18 24 38 127 107 111 108 114 127 135 138 138 138 138 145 137 145 152 156 167 161 159 163 187 193 193 192 199 192 197 206 211 213
37 284 129 103 119 106 91 83 91 83 74 61 48 51 66 86 95 100 103 113 115 119 124 126 128 130 122 127 131 141 147 153 162 180 183 175 183 178 176 176 176 181 194 206
15 22 349 208 151 88 104 93 101 96 86 78 80 78 69 77 72 80 84 100 105 110 110 105 105 107 110 116 121 127 137 155 156 159 159 154 152 162 161 159 161 172 193 192